Weather reports worldwide

Advertisment
Svanberga, Sweden (2490): temperature & dewpoint: 28.05.2020 19:00:00 - 03.06.2020 19:00:00 (CEST)Svanberga, Sweden (2490): wind speed & gusts: 28.05.2020 19:00:00 - 03.06.2020 19:00:00 (CEST)Svanberga, Sweden (2490): wind direction: 28.05.2020 19:00:00 - 03.06.2020 19:00:00 (CEST)Svanberga, Sweden (2490): reduced air pressure: 28.05.2020 19:00:00 - 03.06.2020 19:00:00 (CEST)Svanberga, Sweden (2490): visibility: 28.05.2020 19:00:00 - 03.06.2020 19:00:00 (CEST)Svanberga, Sweden (2490): precipitation: 28.05.2020 19:00:00 - 03.06.2020 19:00:00 (CEST)
Date & Time tt [°C] td [°C] ff [km/h] ff [kn] fx [km/h] fx [kn] dd ppp [hPa] vv [km] rr [mm]
03.06.2020 19:00:00 14,9 2,1 8 4 22 12 SSE 1010,8 48 0,0
03.06.2020 18:00:00 15,5 3,0 11 6 26 14 SSE 1011,3 36 0,0
03.06.2020 17:00:00 16,2 3,3 11 6 26 14 SSE 1011,5 33 0,0
03.06.2020 16:00:00 16,5 4,2 14 7 28 15 E 1011,6 35 0,0
03.06.2020 15:00:00 17,2 5,8 12 7 26 14 E 1012,0 30 0,0
03.06.2020 14:00:00 17,5 3,7 13 7 26 14 ESE 1012,3 29 0,0
03.06.2020 13:00:00 17,5 4,1 10 5 26 14 SE 1012,4 33 0,0
03.06.2020 12:00:00 16,9 3,9 14 7 26 14 E 1012,8 40 0,0
03.06.2020 11:00:00 16,6 5,2 11 6 21 11 ESE 1013,2 35 0,0
03.06.2020 10:00:00 15,5 5,4 12 6 22 12 E 1013,5 35 0,0
03.06.2020 09:00:00 15,3 6,3 9 5 20 11 E 1013,6 27 0,0
03.06.2020 08:00:00 13,9 7,0 11 6 19 10 E 1013,8 35 0,0
03.06.2020 07:00:00 12,1 7,4 10 5 16 9 E 1014,0 39 0,0
03.06.2020 06:00:00 9,7 7,3 5 3 10 5 E 1014,2 34 0,0
03.06.2020 05:00:00 4,5 4,4 0 0 3 2 N 1014,6 16 0,0
03.06.2020 04:00:00 1,1 0,8 0 0 3 2 N 1014,7 - 0,0
03.06.2020 03:00:00 2,2 1,9 0 0 8 5 N 1014,9 13 0,0
03.06.2020 02:00:00 1,9 1,3 0 0 2 1 N 1015,3 22 0,0
03.06.2020 01:00:00 3,1 2,2 0 0 8 4 N 1015,4 42 0,0
03.06.2020 00:00:00 3,1 2,4 0 0 3 2 N 1015,8 48 0,0
02.06.2020 23:00:00 4,2 2,9 0 0 3 1 N 1015,9 50 0,0
02.06.2020 22:00:00 5,8 2,6 0 0 7 4 N 1016,5 50 0,0
02.06.2020 21:00:00 10,1 2,2 4 2 12 7 ESE 1016,6 50 0,0
02.06.2020 20:00:00 12,9 0,0 6 4 16 9 SE 1017,2 48 0,0
02.06.2020 19:00:00 14,5 1,4 4 2 19 11 S 1017,8 46 0,0
02.06.2020 18:00:00 13,5 2,4 9 5 28 15 SE 1017,6 44 0,0
02.06.2020 17:00:00 13,8 2,4 12 6 27 15 SE 1018,0 36 0,0
02.06.2020 16:00:00 14,5 1,7 12 6 27 14 SE 1018,4 38 0,0
02.06.2020 15:00:00 15,3 2,1 10 5 26 14 SE 1019,2 33 0,0
02.06.2020 14:00:00 15,6 2,7 15 8 23 12 SE 1019,6 40 0,0
02.06.2020 13:00:00 16,2 2,6 10 5 25 14 SE 1020,0 37 0,0
02.06.2020 12:00:00 17,3 3,6 10 5 24 13 S 1020,5 38 0,0
02.06.2020 11:00:00 17,0 2,2 9 5 32 18 S 1020,9 33 0,0
02.06.2020 10:00:00 17,1 3,4 9 5 26 14 SSE 1021,2 34 0,0
02.06.2020 09:00:00 16,4 3,5 11 6 27 15 SSE 1021,1 29 0,0
02.06.2020 08:00:00 15,7 4,4 11 6 25 13 SE 1020,9 22 0,0
02.06.2020 07:00:00 14,9 7,2 8 4 18 10 SSE 1020,9 33 0,0
02.06.2020 06:00:00 13,5 8,6 5 3 16 9 SE 1021,1 38 0,0
02.06.2020 05:00:00 12,0 8,1 4 2 13 7 SSE 1021,2 48 0,0
02.06.2020 04:00:00 10,7 8,3 6 4 13 7 SE 1021,2 50 0,0
02.06.2020 03:00:00 9,8 7,9 5 3 10 5 ESE 1021,2 50 0,0
02.06.2020 02:00:00 10,5 7,2 5 3 10 5 ESE 1021,4 50 0,0
02.06.2020 01:00:00 9,1 7,1 5 3 9 5 E 1021,6 50 0,0
02.06.2020 00:00:00 10,6 7,5 3 2 15 8 E 1022,1 30 0,0
01.06.2020 23:00:00 14,5 7,8 6 4 14 8 E 1022,0 48 0,0
01.06.2020 22:00:00 14,4 9,2 4 2 9 5 NNE 1022,0 50 0,0
01.06.2020 21:00:00 16,6 11,5 0 0 9 5 N 1021,7 50 0,0
01.06.2020 20:00:00 23,8 6,6 4 2 14 7 NNE 1021,8 47 0,0
01.06.2020 19:00:00 24,5 7,6 5 3 16 9 NNE 1022,3 41 0,0
01.06.2020 18:00:00 25,2 6,4 9 5 19 10 NE 1022,8 40 0,0
01.06.2020 17:00:00 25,6 5,2 9 5 21 11 N 1023,5 30 0,0
01.06.2020 16:00:00 24,8 7,4 7 4 18 10 NNE 1024,3 41 0,0
01.06.2020 15:00:00 25,3 8,3 8 4 19 11 N 1024,9 30 0,0
01.06.2020 14:00:00 24,4 7,9 8 4 16 9 N 1025,7 32 0,0
01.06.2020 13:00:00 23,5 8,0 5 3 15 8 NNW 1026,3 46 0,0
01.06.2020 12:00:00 23,0 9,0 6 3 21 11 NNE 1026,8 37 0,0
01.06.2020 11:00:00 21,7 7,5 6 3 13 7 NE 1027,4 24 0,0
01.06.2020 10:00:00 20,0 9,0 4 2 11 6 N 1027,7 37 0,0
01.06.2020 09:00:00 18,1 8,9 4 2 9 5 WNW 1028,0 41 0,0
01.06.2020 08:00:00 15,9 8,4 4 2 8 4 W 1028,0 39 0,0
01.06.2020 07:00:00 14,2 7,0 3 2 10 5 N 1027,8 45 0,0
01.06.2020 06:00:00 12,4 6,2 2 1 8 5 N 1027,9 50 0,0
01.06.2020 05:00:00 9,8 4,4 5 3 11 6 NNW 1027,9 50 0,0
01.06.2020 04:00:00 7,4 4,0 4 2 10 6 NW 1028,1 50 0,0
01.06.2020 03:00:00 9,3 3,2 4 2 11 6 NW 1028,2 50 0,0
01.06.2020 02:00:00 8,5 3,5 4 2 10 6 NW 1028,6 50 0,0
01.06.2020 01:00:00 9,6 3,8 4 2 10 6 NW 1028,7 50 0,0
01.06.2020 00:00:00 8,8 4,6 3 2 10 6 WNW 1028,8 50 0,0
31.05.2020 23:00:00 10,2 4,8 4 2 10 6 NW 1028,8 50 0,0
31.05.2020 22:00:00 11,3 4,7 4 2 10 6 WNW 1029,0 50 0,0
31.05.2020 21:00:00 13,8 3,8 4 2 14 8 NNW 1029,2 50 0,0
31.05.2020 20:00:00 15,4 3,2 4 2 24 13 NNE 1029,5 50 0,0
31.05.2020 19:00:00 16,5 4,2 6 3 19 11 NNE 1029,6 50 0,0
31.05.2020 18:00:00 16,8 2,4 9 5 22 12 NNE 1029,8 36 0,0
31.05.2020 17:00:00 18,0 3,5 7 4 27 15 N 1029,9 42 0,0
31.05.2020 16:00:00 18,2 2,5 10 5 25 14 N 1030,4 38 0,0
31.05.2020 15:00:00 18,3 2,2 11 6 27 15 NNE 1030,8 46 0,0
31.05.2020 14:00:00 18,4 3,4 12 6 27 14 NNE 1031,0 41 0,0
31.05.2020 13:00:00 18,4 3,1 12 6 27 15 NNE 1031,1 35 0,0
31.05.2020 12:00:00 18,3 3,4 13 7 26 14 NE 1031,3 29 0,0
31.05.2020 11:00:00 18,0 4,2 11 6 20 11 NE 1031,4 41 0,0
31.05.2020 10:00:00 17,5 7,2 5 3 17 9 NNE 1031,5 34 0,0
31.05.2020 09:00:00 16,0 6,4 7 4 18 10 NNE 1031,3 34 0,0
31.05.2020 08:00:00 14,6 6,9 5 3 11 6 N 1031,2 32 0,0
31.05.2020 07:00:00 12,5 7,0 5 3 13 7 NNW 1030,9 39 0,0
31.05.2020 06:00:00 10,1 6,1 7 4 14 7 NNW 1030,7 43 0,0
31.05.2020 05:00:00 8,9 5,5 6 3 14 7 NNW 1030,6 50 0,0
31.05.2020 04:00:00 7,5 5,1 4 2 11 6 NNW 1030,3 50 0,0
31.05.2020 03:00:00 7,3 4,6 0 0 12 6 N 1030,3 50 0,0
31.05.2020 02:00:00 7,8 4,7 3 1 10 6 NW 1030,1 50 0,0
31.05.2020 01:00:00 8,1 4,7 3 2 10 6 NNW 1030,0 50 0,0
31.05.2020 00:00:00 8,7 4,9 4 2 13 7 NW 1030,0 50 0,0
30.05.2020 23:00:00 9,6 4,6 4 2 10 5 NNW 1030,0 50 0,0
30.05.2020 22:00:00 10,6 4,1 5 3 14 8 NNE 1029,8 50 0,0
30.05.2020 21:00:00 11,4 3,7 5 3 28 15 N 1029,7 50 0,0
30.05.2020 20:00:00 12,9 3,0 10 6 22 12 NNE 1029,7 50 0,0
30.05.2020 19:00:00 13,8 3,8 8 4 34 19 N 1029,9 47 0,0
30.05.2020 18:00:00 14,5 3,3 14 8 32 17 NNE 1029,9 41 0,0
30.05.2020 17:00:00 15,0 4,1 10 5 32 18 N 1030,2 36 0,0
30.05.2020 16:00:00 16,1 4,5 10 5 34 18 NNE 1030,4 19 0,0
30.05.2020 15:00:00 16,4 3,5 14 8 36 19 NE 1030,4 23 0,0
30.05.2020 14:00:00 16,5 3,2 17 9 36 19 NNE 1030,4 33 0,0
30.05.2020 13:00:00 16,7 5,6 12 6 26 14 NNE 1030,5 40 0,0
30.05.2020 12:00:00 16,5 6,0 9 5 22 12 N 1030,7 28 0,0
30.05.2020 11:00:00 16,3 7,5 8 4 18 10 NNW 1030,7 29 0,0
30.05.2020 10:00:00 13,7 7,0 9 5 23 12 NNW 1030,8 42 0,0
30.05.2020 09:00:00 12,7 7,4 5 3 16 9 N 1030,8 33 0,0
30.05.2020 08:00:00 11,6 6,7 5 3 18 10 N 1030,5 45 0,0
30.05.2020 07:00:00 10,9 6,8 4 2 9 5 NNE 1030,0 48 0,0
30.05.2020 06:00:00 9,7 6,2 3 2 14 7 N 1029,7 50 0,0
30.05.2020 05:00:00 8,4 5,9 0 0 9 5 N 1029,6 50 0,0
30.05.2020 04:00:00 6,9 4,7 0 0 7 4 N 1029,5 50 0,0
30.05.2020 03:00:00 4,9 4,8 0 0 5 3 N 1029,7 42 0,0
30.05.2020 02:00:00 3,7 3,6 2 1 6 3 W 1029,5 45 0,0
30.05.2020 01:00:00 3,0 2,6 0 0 2 1 N 1029,6 50 0,0
30.05.2020 00:00:00 3,0 2,3 0 0 2 1 N 1029,2 41 0,0
29.05.2020 23:00:00 4,2 3,3 0 0 2 1 N 1028,9 50 0,0
29.05.2020 22:00:00 5,9 4,1 0 0 3 2 N 1029,0 50 0,0
29.05.2020 21:00:00 9,2 4,4 0 0 13 7 N 1028,6 50 0,0
29.05.2020 20:00:00 13,3 3,1 9 5 17 9 ENE 1028,6 50 0,0
29.05.2020 19:00:00 15,4 1,9 4 2 18 10 N 1028,7 49 0,0
29.05.2020 18:00:00 15,2 1,7 8 4 25 14 NNE 1028,9 41 0,0
29.05.2020 17:00:00 15,5 3,0 10 5 26 14 NNE 1028,9 42 0,0
29.05.2020 16:00:00 15,0 2,5 10 5 29 16 NE 1029,4 40 0,0
29.05.2020 15:00:00 15,4 3,2 8 4 22 12 NNE 1029,5 31 0,0
29.05.2020 14:00:00 15,1 4,2 8 5 19 10 N 1029,9 39 0,0
29.05.2020 13:00:00 15,0 3,5 6 3 20 11 N 1030,2 38 0,0
29.05.2020 12:00:00 14,9 2,8 9 5 19 11 N 1030,3 33 0,0
29.05.2020 11:00:00 13,7 2,9 6 3 22 12 N 1030,6 39 0,0
29.05.2020 10:00:00 13,4 3,7 9 5 19 10 NW 1030,7 40 0,0
29.05.2020 09:00:00 12,9 4,3 8 4 16 9 NNW 1030,7 41 0,0
29.05.2020 08:00:00 12,2 5,1 7 4 15 8 NNW 1030,6 37 0,0
29.05.2020 07:00:00 10,5 4,4 6 4 14 8 N 1031,0 41 0,0
29.05.2020 06:00:00 9,7 4,9 3 2 10 5 NNW 1031,0 44 0,0
29.05.2020 05:00:00 5,9 5,5 3 1 10 5 W 1031,0 49 0,0
29.05.2020 04:00:00 2,6 2,3 0 0 5 3 N 1031,0 27 0,0
29.05.2020 03:00:00 2,5 2,2 0 0 3 2 N 1030,8 21 0,0
29.05.2020 02:00:00 3,5 3,4 0 0 5 3 N 1030,5 34 0,0
29.05.2020 01:00:00 2,6 2,0 0 0 2 1 N 1030,4 41 0,0
29.05.2020 00:00:00 3,9 3,0 0 0 2 1 N 1030,0 50 0,0
28.05.2020 23:00:00 6,5 4,7 0 0 9 5 N 1029,9 50 0,0
28.05.2020 22:00:00 5,5 3,7 0 0 1 1 N 1029,8 50 0,0
28.05.2020 21:00:00 9,3 4,5 0 0 11 6 N 1029,6 50 0,0
28.05.2020 20:00:00 13,7 0,3 5 3 14 7 NE 1029,4 50 0,0
28.05.2020 19:00:00 15,0 0,4 4 2 16 8 NNW 1029,3 47 0,0

tt = temperature
td = dewpoint
ff = wind speed
fx = gusts
dd = wind direction
ppp = reduced air pressure
vv = visibility
rr = precipitation

Next stations